Weather in Bol'shaya Orsha

Russia / Mari El Republic     56°55′18″N   47°49′36″E
temp.,
°C
wind,
m/s
gust,
m/s
humid.,
%
clouds,
%
prec.,
mm/h
press.,
hPa
HPBL,
m
27 july, tue
tue2700:00+17wsw411585 0.0 1017319
03:00+16w4106667 0.0 1016296
06:00+15nw38785 0.0 1017325
09:00+20nnw45520 0.0 10171045
12:00+22nw57430 0.0 10171976
15:00+23nw68365 0.0 10162366
18:00+19nnw47465 0.0 1016698
21:00+12n226648 0.0 101719
28 july, wed
wed2800:00+10n23710 0.0 101846
03:00+9ene11840 0.0 101710
06:00+13w12695 0.0 1018108
09:00+19wnw23475 0.0 10171179
12:00+22wnw34367 0.0 10161904
15:00+23w35335 0.0 10141971
18:00+21wsw23511 0.0 101387
21:00+16s225635 0.0 101220
29 july, thu
thu2900:00+14ssw3763100 0.0 1011106
03:00+14ssw3572100 0.0 101087
06:00+17se1167100 0.0 100848
09:00+16ssw41084100 0.4 1008341
12:00+16sse3799100 3.4 1006364
15:00+16sse2597100 5.2 1005353
18:00+17sse129692 0.1 1004186
21:00+14w119823 0.1 100411
30 july, fri
fri3000:00+14wsw229844 0.0 100538
03:00+13wsw2599100 0.0 1005118
06:00+16wsw499629 0.0 1005294
09:00+22w46745 0.1 1005589
12:00+25w59579 1.2 10051702
15:00+28wnw593926 1.2 10042737
18:00+25w255761 0.0 1005111
21:00+21w366640 0.0 1006132
31 july, sat
sat3100:00+16wsw34835 0.0 100754
03:00+17sw2381100 0.0 100751
06:00+19ssw3680100 0.0 1006180
09:00+24ssw4764100 0.3 1006579
12:00+23wsw376598 0.0 1005292
15:00+22wsw4107466 1.0 1005670
18:00+24sw48680 0.2 1005592
21:00+20ssw38790 0.3 1005170